| time (UTC) | temp F | wind direction | speed knots | gust knots | rain 1hr in | rain 24hr in | rain mn in | humidity % | barometer mb |
| 20260508212427 | 69 | 81 | 0.0 | 0.9 | 0.00 | 0.00 | 0.00 | 99 | 1007.2 |
| 20260508211926 | 69 | 44 | 0.0 | 0.9 | 0.00 | 0.00 | 0.00 | 99 | 1007.2 |
| 20260508211426 | 68 | 87 | 0.0 | 0.0 | 0.00 | 0.00 | 0.00 | 99 | 1007.2 |
| 20260508210926 | 67 | 38 | 0.0 | 0.0 | 0.00 | 0.00 | 0.00 | 99 | 1008.0 |
| 20260508210426 | 66 | 40 | 0.0 | 0.0 | 0.00 | 0.00 | 0.00 | 99 | 1007.2 |
| 20260508205926 | 64 | 76 | 0.0 | 0.0 | 0.00 | 0.00 | 0.00 | 99 | 1008.0 |
| 20260508205426 | 61 | 66 | 0.0 | 0.0 | 0.00 | 0.00 | 0.00 | 99 | 1007.2 |
| 20260508204926 | 62 | 91 | 0.0 | 0.0 | 0.00 | 0.00 | 0.00 | 99 | 1008.0 |
| 20260508204426 | 64 | 7 | 0.0 | 0.0 | 0.00 | 0.00 | 0.00 | 99 | 1007.2 |
| 20260508203926 | 64 | 45 | 0.0 | 0.9 | 0.00 | 0.00 | 0.00 | 99 | 1008.0 |
| 20260508203427 | 64 | 324 | 0.0 | 1.7 | 0.00 | 0.00 | 0.00 | 99 | 1007.2 |
| 20260508202926 | 64 | 47 | 0.0 | 1.7 | 0.00 | 0.00 | 0.00 | 99 | 1007.2 |
| 20260508202426 | 61 | 0 | 0.0 | 0.0 | 0.00 | 0.00 | 0.00 | 99 | 1007.2 |
| 20260508201926 | 59 | 298 | 0.0 | 0.0 | 0.00 | 0.00 | 0.00 | 99 | 1008.0 |
| 20260508201426 | 57 | 2 | 0.0 | 0.0 | 0.00 | 0.00 | 0.00 | 99 | 1008.0 |
| 20260508200926 | 56 | 49 | 0.0 | 0.0 | 0.00 | 0.00 | 0.00 | 99 | 1008.0 |
| 20260508200426 | 56 | 354 | 0.0 | 0.9 | 0.00 | 0.00 | 0.00 | 99 | 1007.2 |
| 20260508195926 | 56 | 45 | 0.0 | 2.6 | 0.00 | 0.00 | 0.00 | 99 | 1007.2 |
| 20260508195426 | 58 | 16 | 0.0 | 2.6 | 0.00 | 0.00 | 0.00 | 99 | 1007.2 |
| 20260508194926 | 59 | 42 | 0.0 | 0.0 | 0.00 | 0.00 | 0.00 | 99 | 1008.0 |
| 20260508194426 | 59 | 85 | 0.0 | 0.0 | 0.00 | 0.00 | 0.00 | 99 | 1007.2 |
| 20260508193926 | 59 | 79 | 0.0 | 0.0 | 0.00 | 0.00 | 0.00 | 99 | 1007.2 |
| 20260508193426 | 60 | 44 | 0.0 | 0.0 | 0.00 | 0.00 | 0.00 | 99 | 1007.2 |
| 20260508192926 | 62 | 309 | 0.0 | 0.0 | 0.00 | 0.00 | 0.00 | 99 | 1007.2 |
| 20260508192426 | 63 | 286 | 0.0 | 0.0 | 0.00 | 0.00 | 0.00 | 99 | 1007.2 |
| 20260508191926 | 64 | 81 | 0.0 | 0.0 | 0.00 | 0.00 | 0.00 | 99 | 1008.0 |
| 20260508191426 | 65 | 44 | 0.0 | 0.0 | 0.00 | 0.00 | 0.00 | 99 | 1008.0 |
| 20260508190926 | 64 | 87 | 0.0 | 0.0 | 0.00 | 0.00 | 0.00 | 99 | 1007.2 |
| 20260508190426 | 65 | 44 | 0.0 | 0.0 | 0.00 | 0.00 | 0.00 | 99 | 1007.2 |
| 20260508185926 | 65 | 359 | 0.0 | 0.0 | 0.00 | 0.00 | 0.00 | 99 | 1008.0 |
| 20260508185426 | 66 | 1 | 0.0 | 0.0 | 0.00 | 0.00 | 0.00 | 99 | 1007.2 |
| 20260508184926 | 67 | 356 | 0.0 | 0.0 | 0.00 | 0.00 | 0.00 | 99 | 1008.0 |
| 20260508184426 | 65 | 12 | 0.0 | 0.0 | 0.00 | 0.00 | 0.00 | 99 | 1008.0 |
| 20260508183926 | 64 | 311 | 0.0 | 0.0 | 0.00 | 0.00 | 0.00 | 99 | 1008.0 |
| 20260508183426 | 62 | 316 | 0.0 | 0.0 | 0.00 | 0.00 | 0.00 | 99 | 1008.0 |
| 20260508182926 | 59 | 81 | 0.0 | 4.3 | 0.00 | 0.00 | 0.00 | 99 | 1008.0 |
| 20260508182426 | 60 | 1 | 0.0 | 4.3 | 0.00 | 0.00 | 0.00 | 99 | 1008.0 |
| 20260508181926 | 62 | 349 | 0.0 | 0.0 | 0.00 | 0.00 | 0.00 | 99 | 1008.0 |
| 20260508181426 | 61 | 223 | 0.0 | 0.0 | 0.00 | 0.00 | 0.00 | 99 | 1008.0 |
| 20260508180926 | 62 | 38 | 0.0 | 0.0 | 0.00 | 0.00 | 0.00 | 99 | 1008.0 |
| 20260508180426 | 61 | 352 | 0.0 | 0.9 | 0.00 | 0.00 | 0.00 | 99 | 1008.0 |
| 20260508175926 | 57 | 2 | 0.0 | 3.5 | 0.00 | 0.00 | 0.00 | 99 | 1008.0 |
| 20260508175426 | 54 | 2 | 0.9 | 3.5 | 0.00 | 0.00 | 0.00 | 99 | 1008.0 |
| 20260508174926 | 51 | 78 | 0.0 | 0.9 | 0.00 | 0.00 | 0.00 | 99 | 1008.0 |
| 20260508174426 | 50 | 47 | 0.0 | 0.9 | 0.00 | 0.00 | 0.00 | 99 | 1008.0 |
| 20260508173926 | 50 | 84 | 0.0 | 0.9 | 0.00 | 0.00 | 0.00 | 99 | 1008.0 |
| 20260508173426 | 50 | 82 | 0.0 | 0.0 | 0.00 | 0.00 | 0.00 | 99 | 1008.0 |
| 20260508172926 | 51 | 70 | 0.0 | 0.0 | 0.00 | 0.00 | 0.00 | 99 | 1008.0 |
| 20260508172426 | 52 | 66 | 0.0 | 1.7 | 0.00 | 0.00 | 0.00 | 99 | 1008.0 |
| 20260508171926 | 52 | 43 | 0.0 | 1.7 | 0.00 | 0.00 | 0.00 | 99 | 1008.0 |
| 20260508171426 | 53 | 44 | 0.0 | 0.0 | 0.00 | 0.00 | 0.00 | 99 | 1008.0 |
| 20260508170926 | 55 | 82 | 0.0 | 0.9 | 0.00 | 0.00 | 0.00 | 99 | 1008.0 |
| 20260508170426 | 55 | 48 | 0.0 | 0.9 | 0.00 | 0.00 | 0.00 | 99 | 1008.0 |
| 20260508165926 | 56 | 84 | 0.0 | 0.0 | 0.00 | 0.00 | 0.00 | 99 | 1008.0 |
| 20260508165426 | 57 | 47 | 0.0 | 2.6 | 0.00 | 0.00 | 0.00 | 99 | 1008.0 |
| 20260508164926 | 57 | 74 | 0.0 | 2.6 | 0.00 | 0.00 | 0.00 | 99 | 1008.0 |
| 20260508164426 | 57 | 38 | 0.0 | 2.6 | 0.00 | 0.00 | 0.00 | 99 | 1008.0 |
| 20260508163926 | 57 | 38 | 0.0 | 2.6 | 0.00 | 0.00 | 0.00 | 99 | 1008.0 |
| 20260508163426 | 57 | 17 | 0.0 | 0.0 | 0.00 | 0.00 | 0.00 | 99 | 1008.0 |
| 20260508162926 | 56 | 94 | 0.0 | 0.0 | 0.00 | 0.00 | 0.00 | 99 | 1008.0 |
| 20260508162426 | 55 | 51 | 0.0 | 0.0 | 0.00 | 0.00 | 0.00 | 99 | 1008.0 |
| 20260508161926 | 55 | 39 | 0.0 | 1.7 | 0.00 | 0.00 | 0.00 | 99 | 1008.0 |
| 20260508161426 | 53 | 317 | 0.0 | 1.7 | 0.00 | 0.00 | 0.00 | 99 | 1008.0 |
| 20260508160926 | 51 | 50 | 0.0 | 1.7 | 0.00 | 0.00 | 0.00 | 99 | 1008.0 |
| 20260508160426 | 49 | 359 | 0.0 | 4.3 | 0.00 | 0.00 | 0.00 | 99 | 1008.0 |
| 20260508155926 | 48 | 41 | 0.9 | 4.3 | 0.00 | 0.00 | 0.00 | 99 | 1008.0 |
| 20260508155426 | 48 | 1 | 0.0 | 2.6 | 0.00 | 0.00 | 0.00 | 99 | 1008.0 |
| 20260508154926 | 48 | 310 | 0.0 | 1.7 | 0.00 | 0.00 | 0.00 | 99 | 1008.0 |
| 20260508154426 | 49 | 33 | 0.0 | 0.9 | 0.00 | 0.00 | 0.00 | 99 | 1008.0 |
| 20260508153926 | 50 | 359 | 0.0 | 3.5 | 0.00 | 0.00 | 0.00 | 99 | 1008.0 |
| 20260508153426 | 52 | 0 | 0.0 | 3.5 | 0.00 | 0.00 | 0.00 | 99 | 1008.0 |
| 20260508152926 | 54 | 321 | 0.0 | 3.5 | 0.00 | 0.00 | 0.00 | 99 | 1008.0 |
| 20260508152426 | 55 | 359 | 0.0 | 0.9 | 0.00 | 0.00 | 0.00 | 99 | 1008.0 |
| 20260508151926 | 58 | 76 | 0.0 | 0.9 | 0.00 | 0.00 | 0.00 | 99 | 1008.0 |
| 20260508151426 | 60 | 285 | 0.0 | 0.0 | 0.00 | 0.00 | 0.00 | 99 | 1007.2 |
| 20260508150926 | 63 | 9 | 0.0 | 0.0 | 0.00 | 0.00 | 0.00 | 99 | 1007.0 |
| 20260508150426 | 64 | 187 | 0.0 | 0.0 | 0.00 | 0.00 | 0.00 | 99 | 1007.0 |
| 20260508145926 | 64 | 146 | 0.0 | 1.7 | 0.00 | 0.00 | 0.00 | 99 | 1007.0 |
| 20260508145426 | 65 | 143 | 0.0 | 1.7 | 0.00 | 0.00 | 0.00 | 99 | 1007.1 |
| 20260508144926 | 65 | 171 | 0.0 | 0.0 | 0.00 | 0.00 | 0.00 | 99 | 1007.2 |
| 20260508144426 | 65 | 138 | 0.0 | 0.0 | 0.00 | 0.00 | 0.00 | 99 | 1007.2 |
| 20260508143926 | 65 | 140 | 0.0 | 0.0 | 0.00 | 0.00 | 0.00 | 99 | 1008.0 |
| 20260508143426 | 68 | 140 | 0.0 | 0.0 | 0.00 | 0.00 | 0.00 | 99 | 1008.0 |
| 20260508142926 | 69 | 70 | 0.0 | 5.2 | 0.00 | 0.00 | 0.00 | 99 | 1008.0 |
| 20260508142426 | 67 | 133 | 0.0 | 5.2 | 0.00 | 0.00 | 0.00 | 99 | 1008.0 |
| 20260508141926 | 67 | 133 | 0.0 | 0.0 | 0.00 | 0.00 | 0.00 | 99 | 1007.2 |
| 20260508141426 | 67 | 355 | 0.0 | 0.0 | 0.00 | 0.00 | 0.00 | 99 | 1008.0 |
| 20260508140926 | 67 | 91 | 0.0 | 0.0 | 0.00 | 0.00 | 0.00 | 99 | 1007.2 |
| 20260508140426 | 67 | 91 | 0.0 | 0.0 | 0.00 | 0.00 | 0.00 | 99 | 1007.2 |
| 20260508135926 | 67 | 42 | 0.0 | 0.0 | 0.00 | 0.00 | 0.00 | 99 | 1008.0 |
| 20260508135426 | 68 | 9 | 0.0 | 0.0 | 0.00 | 0.00 | 0.00 | 99 | 1008.0 |
| 20260508134926 | 67 | 95 | 0.0 | 0.0 | 0.00 | 0.00 | 0.00 | 99 | 1008.0 |
| 20260508134426 | 67 | 158 | 0.0 | 0.0 | 0.00 | 0.00 | 0.00 | 99 | 1008.0 |
| 20260508133926 | 66 | 127 | 0.0 | 0.0 | 0.00 | 0.00 | 0.00 | 99 | 1007.2 |
| 20260508133426 | 66 | 75 | 0.0 | 0.0 | 0.00 | 0.00 | 0.00 | 99 | 1007.2 |
| 20260508132926 | 65 | 146 | 0.0 | 0.0 | 0.00 | 0.00 | 0.00 | 99 | 1008.0 |
| 20260508132426 | 64 | 38 | 0.0 | 0.0 | 0.00 | 0.00 | 0.00 | 99 | 1008.0 |
| 20260508131926 | 64 | 81 | 0.0 | 0.9 | 0.00 | 0.00 | 0.00 | 99 | 1008.0 |
| 20260508131426 | 64 | 11 | 0.0 | 0.9 | 0.00 | 0.00 | 0.00 | 99 | 1008.0 |
| 20260508130926 | 63 | 224 | 0.0 | 0.9 | 0.00 | 0.00 | 0.00 | 99 | 1008.0 |
| 20260508130426 | 62 | 44 | 0.0 | 2.6 | 0.00 | 0.00 | 0.00 | 99 | 1008.0 |
| 20260508125926 | 62 | 284 | 0.0 | 2.6 | 0.00 | 0.00 | 0.00 | 99 | 1008.0 |
| 20260508125426 | 62 | 90 | 0.0 | 0.0 | 0.00 | 0.00 | 0.00 | 99 | 1008.0 |
| 20260508124926 | 62 | 83 | 0.0 | 0.0 | 0.00 | 0.00 | 0.00 | 99 | 1008.0 |
| 20260508124426 | 61 | 133 | 0.0 | 0.0 | 0.00 | 0.00 | 0.00 | 99 | 1008.0 |
| 20260508123926 | 59 | 79 | 0.0 | 0.0 | 0.00 | 0.00 | 0.00 | 99 | 1008.0 |
| 20260508123426 | 56 | 168 | 0.0 | 0.0 | 0.00 | 0.00 | 0.00 | 99 | 1008.0 |
| 20260508122426 | 51 | 84 | 0.0 | 0.0 | 0.00 | 0.00 | 0.00 | 99 | 1008.0 |
| 20260508121926 | 51 | 50 | 0.0 | 0.0 | 0.00 | 0.00 | 0.00 | 99 | 1008.0 |
| 20260508121426 | 51 | 81 | 0.0 | 6.1 | 0.00 | 0.00 | 0.00 | 99 | 1008.0 |
| 20260508120926 | 51 | 63 | 0.9 | 6.1 | 0.00 | 0.00 | 0.00 | 99 | 1008.0 |
| 20260508120426 | 51 | 183 | 0.0 | 0.0 | 0.00 | 0.00 | 0.00 | 99 | 1008.0 |
| 20260508115926 | 52 | 175 | 0.0 | 0.0 | 0.00 | 0.00 | 0.00 | 99 | 1008.0 |
| 20260508115426 | 52 | 72 | 0.0 | 0.0 | 0.00 | 0.00 | 0.00 | 99 | 1008.0 |
| 20260508114926 | 51 | 4 | 0.0 | 0.0 | 0.00 | 0.00 | 0.00 | 99 | 1008.0 |
| 20260508114426 | 51 | 133 | 0.0 | 0.0 | 0.00 | 0.00 | 0.00 | 99 | 1008.0 |
| 20260508113926 | 52 | 135 | 0.0 | 0.0 | 0.00 | 0.00 | 0.00 | 99 | 1008.0 |
| 20260508113426 | 51 | 116 | 0.0 | 0.0 | 0.00 | 0.00 | 0.00 | 99 | 1008.0 |
| 20260508112926 | 49 | 82 | 0.0 | 0.0 | 0.00 | 0.00 | 0.00 | 99 | 1008.0 |
| 20260508112426 | 47 | 168 | 0.0 | 1.7 | 0.00 | 0.00 | 0.00 | 99 | 1007.2 |
| 20260508111926 | 46 | 93 | 0.0 | 1.7 | 0.00 | 0.00 | 0.00 | 99 | 1008.0 |
| 20260508111426 | 44 | 86 | 0.0 | 0.9 | 0.00 | 0.00 | 0.00 | 99 | 1008.0 |
| 20260508110926 | 43 | 69 | 0.0 | 0.9 | 0.00 | 0.00 | 0.00 | 99 | 1008.0 |
| 20260508110426 | 42 | 85 | 0.0 | 0.0 | 0.00 | 0.00 | 0.00 | 99 | 1008.0 |
| 20260508105926 | 42 | 143 | 0.0 | 0.0 | 0.00 | 0.00 | 0.00 | 99 | 1007.2 |
| 20260508105426 | 41 | 95 | 0.0 | 0.0 | 0.00 | 0.00 | 0.00 | 99 | 1007.2 |
| 20260508104926 | 40 | 84 | 0.0 | 0.0 | 0.00 | 0.00 | 0.00 | 99 | 1007.2 |
| 20260508104426 | 39 | 197 | 0.0 | 0.0 | 0.00 | 0.00 | 0.00 | 99 | 1008.0 |
| 20260508103926 | 39 | 67 | 0.0 | 0.0 | 0.00 | 0.00 | 0.00 | 99 | 1007.2 |
| 20260508103426 | 38 | 74 | 0.0 | 0.0 | 0.00 | 0.00 | 0.00 | 99 | 1008.0 |
| 20260508102926 | 38 | 107 | 0.0 | 0.0 | 0.00 | 0.00 | 0.00 | 99 | 1007.2 |
| 20260508102426 | 38 | 75 | 0.0 | 0.0 | 0.00 | 0.00 | 0.00 | 99 | 1007.2 |
| 20260508101926 | 38 | 106 | 0.0 | 0.0 | 0.00 | 0.00 | 0.00 | 99 | 1008.0 |
| 20260508101426 | 37 | 59 | 0.0 | 0.0 | 0.00 | 0.00 | 0.00 | 99 | 1008.0 |
| 20260508100926 | 37 | 53 | 0.0 | 0.0 | 0.00 | 0.00 | 0.00 | 99 | 1008.0 |
| 20260508100426 | 37 | 67 | 0.0 | 0.0 | 0.00 | 0.00 | 0.00 | 99 | 1008.0 |
| 20260508095926 | 37 | 99 | 0.0 | 0.0 | 0.00 | 0.00 | 0.00 | 99 | 1008.0 |
| 20260508095426 | 37 | 106 | 0.0 | 0.0 | 0.00 | 0.00 | 0.00 | 99 | 1008.0 |
| 20260508094926 | 37 | 113 | 0.0 | 0.0 | 0.00 | 0.00 | 0.00 | 99 | 1007.2 |
| 20260508094426 | 37 | 41 | 0.0 | 0.0 | 0.00 | 0.00 | 0.00 | 99 | 1008.0 |
| 20260508093926 | 37 | 9 | 0.0 | 0.0 | 0.00 | 0.00 | 0.00 | 99 | 1008.0 |
| 20260508093426 | 37 | 45 | 0.0 | 0.0 | 0.00 | 0.00 | 0.00 | 99 | 1007.1 |
| 20260508092926 | 36 | 61 | 0.0 | 0.0 | 0.00 | 0.00 | 0.00 | 99 | 1007.0 |
| 20260508092426 | 36 | 67 | 0.0 | 0.0 | 0.00 | 0.00 | 0.00 | 99 | 1007.0 |
| 20260508091926 | 36 | 67 | 0.0 | 0.0 | 0.00 | 0.00 | 0.00 | 99 | 1007.0 |
| 20260508091426 | 36 | 73 | 0.0 | 0.0 | 0.00 | 0.00 | 0.00 | 99 | 1007.0 |
| 20260508090926 | 36 | 134 | 0.0 | 0.0 | 0.00 | 0.00 | 0.00 | 99 | 1007.0 |
| 20260508090426 | 36 | 144 | 0.0 | 0.0 | 0.00 | 0.00 | 0.00 | 99 | 1007.0 |
| 20260508085926 | 36 | 159 | 0.0 | 0.0 | 0.00 | 0.00 | 0.00 | 99 | 1007.0 |
| 20260508085426 | 36 | 195 | 0.0 | 0.0 | 0.00 | 0.00 | 0.00 | 99 | 1007.0 |
| 20260508084926 | 35 | 247 | 0.0 | 0.0 | 0.00 | 0.00 | 0.00 | 99 | 1007.0 |
| 20260508084426 | 35 | 247 | 0.0 | 0.0 | 0.00 | 0.00 | 0.00 | 99 | 1007.0 |
| 20260508083926 | 35 | 247 | 0.0 | 0.0 | 0.00 | 0.00 | 0.00 | 99 | 1007.0 |
| 20260508083426 | 35 | 247 | 0.0 | 0.0 | 0.00 | 0.00 | 0.00 | 99 | 1007.0 |
| 20260508082925 | 35 | 135 | 0.0 | 0.0 | 0.00 | 0.00 | 0.00 | 99 | 1007.0 |
| 20260508082425 | 35 | 150 | 0.0 | 0.0 | 0.00 | 0.00 | 0.00 | 99 | 1007.0 |
| 20260508081926 | 34 | 180 | 0.0 | 0.0 | 0.00 | 0.00 | 0.00 | 99 | 1007.0 |
| 20260508081425 | 34 | 167 | 0.0 | 0.0 | 0.00 | 0.00 | 0.00 | 99 | 1007.0 |
| 20260508080925 | 34 | 138 | 0.0 | 0.0 | 0.00 | 0.00 | 0.00 | 99 | 1007.0 |
| 20260508080425 | 34 | 81 | 0.0 | 0.0 | 0.00 | 0.00 | 0.00 | 99 | 1007.0 |
| 20260508075925 | 34 | 112 | 0.0 | 0.0 | 0.00 | 0.00 | 0.00 | 99 | 1007.0 |
| 20260508075425 | 34 | 112 | 0.0 | 0.0 | 0.00 | 0.00 | 0.00 | 99 | 1007.0 |
| 20260508074926 | 34 | 102 | 0.0 | 0.0 | 0.00 | 0.00 | 0.00 | 99 | 1007.0 |
| 20260508074425 | 34 | 112 | 0.0 | 0.0 | 0.00 | 0.00 | 0.00 | 99 | 1007.0 |
| 20260508073925 | 34 | 119 | 0.0 | 0.0 | 0.00 | 0.00 | 0.00 | 99 | 1007.0 |
| 20260508073426 | 34 | 135 | 0.0 | 0.0 | 0.00 | 0.00 | 0.00 | 99 | 1007.0 |
| 20260508072925 | 34 | 138 | 0.0 | 0.0 | 0.00 | 0.00 | 0.00 | 99 | 1007.0 |
| 20260508072425 | 35 | 157 | 0.0 | 0.0 | 0.00 | 0.00 | 0.00 | 99 | 1007.0 |
| 20260508071925 | 35 | 172 | 0.0 | 0.0 | 0.00 | 0.00 | 0.00 | 99 | 1007.0 |
| 20260508071425 | 35 | 180 | 0.0 | 0.0 | 0.00 | 0.00 | 0.00 | 99 | 1007.0 |
| 20260508070925 | 35 | 203 | 0.0 | 0.0 | 0.00 | 0.00 | 0.00 | 99 | 1007.0 |
| 20260508070425 | 36 | 225 | 0.0 | 0.0 | 0.00 | 0.00 | 0.00 | 99 | 1007.0 |
| 20260508065925 | 36 | 224 | 0.0 | 0.0 | 0.00 | 0.00 | 0.00 | 99 | 1007.0 |
| 20260508065425 | 36 | 193 | 0.0 | 0.0 | 0.00 | 0.00 | 0.00 | 99 | 1007.0 |
| 20260508064925 | 36 | 190 | 0.0 | 0.0 | 0.00 | 0.00 | 0.00 | 99 | 1007.0 |
| 20260508064426 | 36 | 246 | 0.0 | 0.0 | 0.00 | 0.00 | 0.00 | 99 | 1007.0 |
| 20260508063925 | 35 | 247 | 0.0 | 0.0 | 0.00 | 0.00 | 0.00 | 99 | 1007.0 |
| 20260508063426 | 35 | 233 | 0.0 | 0.0 | 0.00 | 0.00 | 0.00 | 99 | 1007.0 |
| 20260508062925 | 35 | 197 | 0.0 | 0.0 | 0.00 | 0.00 | 0.00 | 99 | 1007.0 |
| 20260508062425 | 35 | 202 | 0.0 | 0.0 | 0.00 | 0.00 | 0.00 | 99 | 1007.0 |
| 20260508061925 | 35 | 179 | 0.0 | 0.0 | 0.00 | 0.00 | 0.00 | 99 | 1007.0 |
| 20260508061425 | 35 | 118 | 0.0 | 0.0 | 0.00 | 0.00 | 0.00 | 99 | 1007.0 |
| 20260508060925 | 34 | 112 | 0.0 | 0.0 | 0.00 | 0.00 | 0.00 | 99 | 1007.0 |
| 20260508060425 | 34 | 125 | 0.0 | 0.0 | 0.00 | 0.00 | 0.00 | 99 | 1007.0 |
| 20260508055925 | 34 | 181 | 0.0 | 0.0 | 0.00 | 0.00 | 0.00 | 99 | 1007.0 |
| 20260508055425 | 34 | 173 | 0.0 | 0.0 | 0.00 | 0.00 | 0.00 | 99 | 1007.0 |
| 20260508054925 | 34 | 119 | 0.0 | 0.0 | 0.00 | 0.00 | 0.00 | 99 | 1007.0 |
| 20260508054425 | 34 | 78 | 0.0 | 0.0 | 0.00 | 0.00 | 0.00 | 99 | 1007.0 |
| 20260508053925 | 34 | 78 | 0.0 | 0.0 | 0.00 | 0.00 | 0.00 | 99 | 1007.0 |
| 20260508053425 | 34 | 104 | 0.0 | 0.0 | 0.00 | 0.00 | 0.00 | 99 | 1007.0 |
| 20260508052925 | 34 | 85 | 0.0 | 0.0 | 0.00 | 0.00 | 0.00 | 99 | 1007.0 |
| 20260508052425 | 34 | 142 | 0.0 | 0.0 | 0.00 | 0.00 | 0.00 | 99 | 1007.0 |
| 20260508051925 | 34 | 172 | 0.0 | 0.0 | 0.00 | 0.00 | 0.00 | 99 | 1006.2 |
| 20260508051425 | 33 | 151 | 0.0 | 0.0 | 0.00 | 0.00 | 0.00 | 99 | 1007.0 |
| 20260508050925 | 33 | 165 | 0.0 | 0.0 | 0.00 | 0.00 | 0.00 | 99 | 1007.0 |
| 20260508050425 | 33 | 146 | 0.0 | 0.0 | 0.00 | 0.00 | 0.00 | 99 | 1007.0 |
| 20260508045925 | 33 | 74 | 0.0 | 0.0 | 0.00 | 0.00 | 0.00 | 99 | 1007.0 |
| 20260508045425 | 33 | 48 | 0.0 | 0.0 | 0.00 | 0.00 | 0.00 | 99 | 1007.0 |
| 20260508044925 | 33 | 73 | 0.0 | 0.0 | 0.00 | 0.00 | 0.00 | 99 | 1007.0 |
| 20260508044425 | 33 | 52 | 0.0 | 0.0 | 0.00 | 0.00 | 0.00 | 99 | 1007.0 |
| 20260508043425 | 33 | 45 | 0.0 | 0.0 | 0.00 | 0.00 | 0.00 | 99 | 1006.2 |
| 20260508042925 | 33 | 93 | 0.0 | 0.0 | 0.00 | 0.00 | 0.00 | 99 | 1007.0 |
| 20260508042425 | 32 | 111 | 0.0 | 0.0 | 0.00 | 0.00 | 0.00 | 99 | 1007.0 |
| 20260508041925 | 33 | 57 | 0.0 | 0.0 | 0.00 | 0.00 | 0.00 | 99 | 1007.0 |
| 20260508041425 | 33 | 45 | 0.0 | 0.0 | 0.00 | 0.00 | 0.00 | 99 | 1007.0 |
| 20260508040925 | 33 | 45 | 0.0 | 0.0 | 0.00 | 0.00 | 0.00 | 99 | 1007.0 |
| 20260508040425 | 33 | 51 | 0.0 | 0.0 | 0.00 | 0.00 | 0.00 | 99 | 1007.0 |
| 20260508035925 | 34 | 79 | 0.0 | 0.0 | 0.00 | 0.00 | 0.00 | 99 | 1007.0 |
| 20260508035425 | 33 | 55 | 0.0 | 0.0 | 0.00 | 0.00 | 0.00 | 99 | 1007.0 |
| 20260508034925 | 33 | 117 | 0.0 | 0.0 | 0.00 | 0.00 | 0.00 | 99 | 1007.0 |
| 20260508034425 | 33 | 111 | 0.0 | 0.0 | 0.00 | 0.00 | 0.00 | 99 | 1007.0 |
| 20260508033925 | 34 | 112 | 0.0 | 0.0 | 0.00 | 0.00 | 0.00 | 99 | 1007.0 |
| 20260508033425 | 34 | 127 | 0.0 | 0.0 | 0.00 | 0.00 | 0.00 | 99 | 1007.0 |
| 20260508032925 | 34 | 94 | 0.0 | 0.0 | 0.00 | 0.00 | 0.00 | 99 | 1007.0 |
| 20260508032425 | 34 | 90 | 0.0 | 0.0 | 0.00 | 0.00 | 0.00 | 99 | 1007.0 |
| 20260508031925 | 34 | 90 | 0.0 | 0.0 | 0.00 | 0.00 | 0.00 | 99 | 1007.0 |
| 20260508031425 | 34 | 96 | 0.0 | 0.0 | 0.00 | 0.00 | 0.00 | 99 | 1007.0 |
| 20260508030925 | 35 | 135 | 0.0 | 0.0 | 0.00 | 0.00 | 0.00 | 99 | 1007.0 |
| 20260508030425 | 35 | 125 | 0.0 | 0.0 | 0.00 | 0.00 | 0.00 | 99 | 1007.0 |
| 20260508025925 | 35 | 112 | 0.0 | 0.0 | 0.00 | 0.00 | 0.00 | 99 | 1007.0 |
| 20260508025425 | 35 | 128 | 0.0 | 0.0 | 0.00 | 0.00 | 0.00 | 99 | 1007.0 |
| 20260508024925 | 35 | 148 | 0.0 | 0.0 | 0.00 | 0.00 | 0.00 | 99 | 1007.0 |
| 20260508024425 | 35 | 115 | 0.0 | 0.0 | 0.00 | 0.00 | 0.00 | 99 | 1007.0 |
| 20260508023925 | 35 | 135 | 0.0 | 0.0 | 0.00 | 0.00 | 0.00 | 99 | 1007.0 |
| 20260508023425 | 36 | 135 | 0.0 | 0.0 | 0.00 | 0.00 | 0.00 | 99 | 1007.0 |
| 20260508022925 | 36 | 135 | 0.0 | 0.0 | 0.00 | 0.00 | 0.00 | 99 | 1007.0 |
| 20260508022425 | 36 | 135 | 0.0 | 0.0 | 0.00 | 0.00 | 0.00 | 99 | 1007.0 |
| 20260508021925 | 37 | 135 | 0.0 | 0.0 | 0.00 | 0.00 | 0.00 | 99 | 1007.0 |
| 20260508021425 | 37 | 135 | 0.0 | 0.0 | 0.00 | 0.00 | 0.00 | 99 | 1007.0 |
| 20260508020925 | 37 | 135 | 0.0 | 0.0 | 0.00 | 0.00 | 0.00 | 99 | 1007.0 |
| 20260508020425 | 37 | 135 | 0.0 | 0.0 | 0.00 | 0.00 | 0.00 | 99 | 1007.0 |
| 20260508015925 | 37 | 147 | 0.0 | 0.0 | 0.00 | 0.00 | 0.00 | 99 | 1007.0 |
| 20260508015425 | 37 | 157 | 0.0 | 0.0 | 0.00 | 0.00 | 0.00 | 99 | 1007.0 |
| 20260508014925 | 37 | 135 | 0.0 | 0.0 | 0.00 | 0.00 | 0.00 | 99 | 1007.0 |
| 20260508014425 | 37 | 135 | 0.0 | 0.0 | 0.00 | 0.00 | 0.00 | 99 | 1007.0 |
| 20260508013925 | 38 | 135 | 0.0 | 0.0 | 0.00 | 0.00 | 0.00 | 99 | 1007.0 |
| 20260508013425 | 38 | 135 | 0.0 | 0.0 | 0.00 | 0.00 | 0.00 | 99 | 1007.0 |
| 20260508012925 | 39 | 135 | 0.0 | 0.0 | 0.00 | 0.00 | 0.00 | 99 | 1007.0 |
| 20260508012425 | 39 | 135 | 0.0 | 0.0 | 0.00 | 0.00 | 0.00 | 99 | 1007.0 |
| 20260508011925 | 39 | 135 | 0.0 | 0.0 | 0.00 | 0.00 | 0.00 | 99 | 1006.2 |
| 20260508011425 | 40 | 135 | 0.0 | 0.0 | 0.00 | 0.00 | 0.00 | 99 | 1006.2 |
| 20260508010925 | 41 | 135 | 0.0 | 0.0 | 0.00 | 0.00 | 0.00 | 99 | 1007.0 |
| 20260508010425 | 41 | 153 | 0.0 | 0.0 | 0.00 | 0.00 | 0.00 | 99 | 1006.2 |
| 20260508005925 | 42 | 157 | 0.0 | 0.0 | 0.00 | 0.00 | 0.00 | 99 | 1007.0 |
| 20260508005425 | 42 | 135 | 0.0 | 0.0 | 0.00 | 0.00 | 0.00 | 99 | 1007.0 |
| 20260508004925 | 43 | 153 | 0.0 | 0.0 | 0.00 | 0.00 | 0.00 | 99 | 1007.0 |
| 20260508004425 | 43 | 130 | 0.0 | 0.0 | 0.00 | 0.00 | 0.00 | 99 | 1007.0 |
| 20260508003925 | 44 | 117 | 0.0 | 0.0 | 0.00 | 0.00 | 0.00 | 99 | 1006.1 |
| 20260508003425 | 45 | 180 | 0.0 | 0.0 | 0.00 | 0.00 | 0.00 | 99 | 1006.0 |
| 20260508002925 | 46 | 201 | 0.0 | 0.0 | 0.00 | 0.00 | 0.00 | 99 | 1006.0 |
| 20260508002425 | 46 | 174 | 0.0 | 0.0 | 0.00 | 0.00 | 0.00 | 99 | 1006.0 |
| 20260508001925 | 46 | 159 | 0.0 | 0.0 | 0.00 | 0.00 | 0.00 | 99 | 1006.0 |
| 20260508001425 | 47 | 145 | 0.0 | 0.0 | 0.00 | 0.00 | 0.00 | 99 | 1006.0 |
| 20260508000925 | 48 | 147 | 0.0 | 0.0 | 0.00 | 0.00 | 0.00 | 99 | 1006.0 |
| 20260508000427 | 49 | 125 | 0.0 | 0.0 | 0.00 | 0.00 | 0.00 | 99 | 1006.0 |
| 20260507235925 | 50 | 110 | 0.0 | 0.0 | 0.00 | 0.00 | 0.00 | 99 | 1006.0 |
| 20260507234925 | 52 | 127 | 0.0 | 0.0 | 0.00 | 0.00 | 0.00 | 99 | 1006.0 |
| 20260507234425 | 53 | 116 | 0.0 | 0.0 | 0.00 | 0.00 | 0.00 | 99 | 1006.0 |
| 20260507233925 | 54 | 52 | 0.0 | 0.0 | 0.00 | 0.00 | 0.00 | 99 | 1006.0 |
| 20260507233425 | 54 | 121 | 0.0 | 0.0 | 0.00 | 0.00 | 0.00 | 99 | 1006.0 |
| 20260507232925 | 55 | 81 | 0.0 | 0.0 | 0.00 | 0.00 | 0.00 | 99 | 1006.0 |
| 20260507232425 | 55 | 137 | 0.0 | 0.0 | 0.00 | 0.00 | 0.00 | 99 | 1006.0 |
| 20260507231925 | 55 | 79 | 0.0 | 0.0 | 0.00 | 0.00 | 0.00 | 99 | 1005.2 |
| 20260507231425 | 56 | 54 | 0.0 | 0.0 | 0.00 | 0.00 | 0.00 | 99 | 1005.2 |
| 20260507230925 | 57 | 96 | 0.0 | 0.0 | 0.00 | 0.00 | 0.00 | 99 | 1006.0 |
| 20260507230425 | 57 | 45 | 0.0 | 0.0 | 0.00 | 0.00 | 0.00 | 99 | 1005.2 |
| 20260507225925 | 59 | 285 | 0.0 | 0.9 | 0.00 | 0.00 | 0.00 | 99 | 1006.0 |
| 20260507224925 | 61 | 11 | 0.0 | 1.7 | 0.00 | 0.00 | 0.00 | 99 | 1005.2 |
| 20260507224425 | 60 | 74 | 0.0 | 1.7 | 0.00 | 0.00 | 0.00 | 99 | 1005.2 |
| 20260507223925 | 58 | 88 | 0.0 | 0.0 | 0.00 | 0.00 | 0.00 | 99 | 1006.0 |
| 20260507223425 | 58 | 44 | 0.0 | 1.7 | 0.00 | 0.00 | 0.00 | 99 | 1005.2 |
| 20260507222925 | 59 | 41 | 0.0 | 1.7 | 0.00 | 0.00 | 0.00 | 99 | 1006.0 |
| 20260507222425 | 61 | 71 | 0.0 | 0.0 | 0.00 | 0.00 | 0.00 | 99 | 1005.2 |
| 20260507221925 | 62 | 145 | 0.0 | 0.0 | 0.00 | 0.00 | 0.00 | 99 | 1006.0 |
| 20260507221425 | 64 | 85 | 0.0 | 0.0 | 0.00 | 0.00 | 0.00 | 99 | 1005.2 |
| 20260507220925 | 68 | 79 | 0.0 | 0.0 | 0.00 | 0.00 | 0.00 | 99 | 1005.2 |
| 20260507220425 | 68 | 136 | 0.0 | 0.0 | 0.00 | 0.00 | 0.00 | 99 | 1005.2 |
| 20260507215925 | 66 | 45 | 0.0 | 0.0 | 0.00 | 0.00 | 0.00 | 99 | 1006.0 |
| 20260507215425 | 65 | 73 | 0.0 | 0.0 | 0.00 | 0.00 | 0.00 | 99 | 1005.2 |
| 20260507214925 | 65 | 182 | 0.0 | 0.0 | 0.00 | 0.00 | 0.00 | 99 | 1005.2 |
| 20260507214425 | 64 | 87 | 0.0 | 2.6 | 0.00 | 0.00 | 0.00 | 99 | 1005.2 |
| 20260507213925 | 64 | 14 | 0.0 | 2.6 | 0.00 | 0.00 | 0.00 | 99 | 1005.2 |
| 20260507213425 | 64 | 90 | 0.0 | 0.0 | 0.00 | 0.00 | 0.00 | 99 | 1005.2 |
| 20260507212925 | 65 | 84 | 0.0 | 0.0 | 0.00 | 0.00 | 0.00 | 99 | 1005.2 |